Regional Weather Roundup
Issued by NWS

Home | Current Version | Previous Version | Graphics & Text | Print | Product List | Glossary On
Versions: 1 2 3 4 5 6 7 8 9 10 11 12 13 14 15 16 17 18 19 20 21 22 23 24 25 26 27 28 29 30 31 32 33 34 35 36 37 38 39 40 41 42 43 44 45 46 47 48 49 50
000
ASUS43 KOAX 220202
RWRNE

WEATHER ROUNDUP FOR NEBRASKA
NATIONAL WEATHER SERVICE OMAHA NE
900 PM CDT SUN SEP 21 2014

NOTES: SATELLITE DATA IS BEING USED TO AUGMENT CLOUD COVER ABOVE
       12000 FEET.
       "FAIR" INDICATES FEW OR NO CLOUDS BELOW 12,000 FEET WITH NO
       SIGNIFICANT WEATHER AND/OR OBSTRUCTIONS TO VISIBILITY.

  * THESE STATIONS DO NOT REPORT WEATHER SUCH AS RAIN...SNOW OR FOG.

NEZ001>004-019>022-054>056-220300-
NEBRASKA PANHANDLE

CITY           SKY/WX    TMP DP  RH WIND       PRES   REMARKS
SCOTTSBLUFF    MOCLDY    63  43  48 E9        30.28R
ALLIANCE       MOCLDY    58  43  57 SE9       30.29R
CHADRON        MOCLDY    59  42  53 SE9       30.25R
KIMBALL        MOCLDY    60  42  50 SE7       30.30S
SIDNEY         MOCLDY    65  40  39 SE8       30.32R
$$

NEZ057>060-069>072-079>082-220300-
SOUTHWEST NEBRASKA

CITY           SKY/WX    TMP DP  RH WIND       PRES   REMARKS
NORTH PLATTE   PTCLDY    55  43  63 SE3       30.29R
IMPERIAL       CLOUDY    61  46  57 E3        30.31R
LEXINGTON      CLEAR     59  46  63 E3        30.28R
MCCOOK         CLEAR     62  43  49 E6        30.29R
OGALLALA       PTCLDY    64  45  51 E6        30.30R
$$

NEZ005>010-023>029-035>040-094-220300-
NORTH CENTRAL NEBRASKA

CITY           SKY/WX    TMP DP  RH WIND       PRES   REMARKS
VALENTINE      CLEAR     56  39  53 CALM      30.29R
AINSWORTH      CLEAR     53  45  74 S5        30.29R
BROKEN BOW     CLEAR     53  43  68 CALM      30.28R
O`NEILL        CLEAR     56  48  75 CALM      30.27S
ORD            CLEAR     51  46  83 CALM      30.27R
THEDFORD       PTCLDY    61  38  41 CALM      30.30R
$$

NEZ041-046>049-061>064-073>077-083>087-220300-
SOUTH CENTRAL NEBRASKA

CITY           SKY/WX    TMP DP  RH WIND       PRES   REMARKS
GRAND ISLAND   CLEAR     55  47  74 E3        30.28R
AURORA         CLEAR     56  49  76 NE5       30.27R
HASTINGS       CLEAR     59  45  59 CALM      30.28R
HEBRON         CLEAR     55  47  73 CALM      30.27R
HOLDREGE       CLEAR     57  45  62 CALM      30.28R
KEARNEY *      CLEAR     59  45  58 NE3       30.28R
YORK           CLEAR     55  50  82 N5        30.27R
$$

NEZ011>018-030>034-042>045-220300-
NORTHEAST NEBRASKA

CITY           SKY/WX    TMP DP  RH WIND       PRES   REMARKS
NORFOLK        CLEAR     58  47  66 CALM      30.26R
ALBION         CLEAR     54  46  72 NE5       30.27R
BLAIR          CLEAR     62  48  59 N5        30.24R
COLUMBUS *     CLEAR     54  46  76 CALM      30.28R
FREMONT        CLEAR     59  49  68 CALM      30.26R
TEKAMAH        CLEAR     55  49  80 W3        30.24R
WAYNE          CLEAR     51  48  88 CALM      30.26R
$$

NEZ050>053-065>068-078-088>093-220300-
SOUTHEAST NEBRASKA

CITY           SKY/WX    TMP DP  RH WIND       PRES   REMARKS
LINCOLN        CLEAR     59  48  67 N5        30.26R
OMAHA EPPLEY   CLEAR     62  52  69 CALM      30.24R
BEATRICE       CLEAR     58  47  67 N5        30.25R
FALLS CITY     CLEAR     60  50  69 N3        30.23R
NEBRASKA CITY    N/A     59  44  56 NW5       30.24R
PLATTSMOUTH    CLEAR     58  47  67 CALM      30.24R
$$

NEZ044-045-051>053-067-220300-
OMAHA AREA

CITY           SKY/WX    TMP DP  RH WIND       PRES   REMARKS
OMAHA EPPLEY   CLEAR     62  52  69 CALM      30.24R
BLAIR          CLEAR     62  48  59 N5        30.24R
FREMONT        CLEAR     59  49  68 CALM      30.26R
MILLARD        CLEAR     60  52  75 CALM      30.24R
OFFUTT AFB     CLEAR     56  53  87 N2        30.24R
PLATTSMOUTH    CLEAR     58  47  67 CALM      30.24R
WAHOO          FAIR      58  49  72 N3        30.25R
$$



USA.gov is the U.S. government's official web portal to all federal, state and local government web resources and services.